TimeEDT,TemperatureF,Dew PointF,Humidity,Sea Level PressureIn,VisibilityMPH,Wind Direction,Wind SpeedMPH,Gust SpeedMPH,PrecipitationIn,Events,Conditions,WindDirDegrees,DateUTC
12:53 AM,21.9,15.1,75,30.38,10.0,Calm,Calm,-,N/A,,Clear,0,2013-04-04 04:53:00
1:53 AM,19.0,14.0,81,30.38,10.0,Calm,Calm,-,N/A,,Clear,0,2013-04-04 05:53:00
2:53 AM,21.0,15.1,78,30.35,10.0,Calm,Calm,-,N/A,,Clear,0,2013-04-04 06:53:00
3:53 AM,19.0,14.0,81,30.35,10.0,Calm,Calm,-,N/A,,Clear,0,2013-04-04 07:53:00
4:53 AM,19.0,15.1,85,30.34,10.0,Calm,Calm,-,N/A,,Clear,0,2013-04-04 08:53:00
5:53 AM,21.9,12.9,68,30.32,10.0,SSW,3.5,-,N/A,,Clear,210,2013-04-04 09:53:00
6:53 AM,19.0,12.0,74,30.31,10.0,SSW,3.5,-,N/A,,Clear,200,2013-04-04 10:53:00
7:53 AM,19.0,14.0,81,30.30,10.0,Calm,Calm,-,N/A,,Clear,0,2013-04-04 11:53:00
8:53 AM,30.0,18.0,61,30.29,10.0,SW,9.2,-,N/A,,Clear,230,2013-04-04 12:53:00
9:53 AM,36.0,16.0,44,30.25,10.0,SSW,9.2,-,N/A,,Clear,210,2013-04-04 13:53:00
10:53 AM,41.0,15.1,35,30.22,10.0,South,6.9,-,N/A,,Clear,170,2013-04-04 14:53:00
11:53 AM,44.1,12.9,28,30.19,10.0,SSW,9.2,-,N/A,,Clear,210,2013-04-04 15:53:00
12:53 PM,48.0,12.0,24,30.16,10.0,SW,11.5,-,N/A,,Clear,220,2013-04-04 16:53:00
1:53 PM,50.0,12.0,22,30.12,10.0,SSW,11.5,-,N/A,,Clear,210,2013-04-04 17:53:00
2:53 PM,53.1,12.0,20,30.08,10.0,SSW,12.7,19.6,N/A,,Clear,200,2013-04-04 18:53:00
3:53 PM,54.0,14.0,21,30.04,10.0,SSW,9.2,17.3,N/A,,Clear,210,2013-04-04 19:53:00
4:53 PM,55.0,12.9,19,30.01,10.0,West,13.8,19.6,N/A,,Clear,260,2013-04-04 20:53:00
5:53 PM,55.9,14.0,19,29.99,10.0,WSW,12.7,-,N/A,,Clear,250,2013-04-04 21:53:00
6:53 PM,54.0,15.1,22,29.99,10.0,West,8.1,-,N/A,,Clear,260,2013-04-04 22:53:00
7:53 PM,46.9,17.1,30,29.99,10.0,WSW,6.9,-,N/A,,Clear,240,2013-04-04 23:53:00
8:53 PM,48.0,17.1,29,29.98,10.0,West,3.5,-,N/A,,Clear,280,2013-04-05 00:53:00
9:53 PM,37.0,21.9,54,29.99,10.0,Calm,Calm,-,N/A,,Clear,0,2013-04-05 01:53:00
10:53 PM,33.1,23.0,66,29.99,10.0,West,4.6,-,N/A,,Scattered Clouds,280,2013-04-05 02:53:00
11:53 PM,39.0,24.1,55,29.97,10.0,WNW,4.6,-,N/A,,Mostly Cloudy,290,2013-04-05 03:53:00